KB9ZI Weather Reports


time (UTC)temp
C
wind
direction
speed
KPH
gust
KPH
rain 1hr
cm
rain 24hr
cm
rain mn
cm
humidity
%
barometer
mb
20260504000236 20 221 0.0 9.7 0.00 0.00 0.00 31 1004.4
20260504000016 20 238 0.0 9.7 0.00 0.00 0.00 31 1004.5
20260503235918 20 251 0.0 9.7 0.00 0.00 0.00 32 1004.4
20260503235815 20 257 0.0 9.7 0.00 0.00 0.00 30 1004.5
20260503235718 21 262 0.0 17.7 0.00 0.00 0.00 30 1004.4
20260503235659 21 255 0.0 17.7 0.00 0.00 0.00 32 1004.4
20260503235624 21 262 0.0 17.7 0.00 0.00 0.00 30 1004.4
20260503235214 21 262 0.0 17.7 0.00 0.00 0.00 31 1004.3
20260503235004 21 251 0.0 17.7 0.00 0.00 0.00 31 1004.4
20260503234910 21 228 0.0 17.7 0.00 0.00 0.00 29 1004.4
20260503234804 21 227 0.0 17.7 0.00 0.00 0.00 29 1004.4
20260503234744 21 243 0.0 17.7 0.00 0.00 0.00 29 1004.4
20260503234700 21 250 0.0 17.7 0.00 0.00 0.00 29 1004.5
20260503234618 21 250 0.0 17.7 0.00 0.00 0.00 29 1004.5
20260503234206 21 226 0.0 17.7 0.00 0.00 0.00 29 1004.4
20260503233956 21 219 0.0 17.7 0.00 0.00 0.00 29 1004.5
20260503233859 21 223 0.0 17.7 0.00 0.00 0.00 29 1004.5
20260503233801 21 272 0.0 16.1 0.00 0.00 0.00 29 1004.5
20260503233602 22 231 0.0 0.0 0.00 0.00 0.00 30 1004.5
20260503233400 22 241 0.0 0.0 0.00 0.00 0.00 32 1004.6
20260503233200 22 230 0.0 4.8 0.00 0.00 0.00 32 1004.5
20260503233059 22 230 0.0 4.8 0.00 0.00 0.00 32 1004.5
20260503232843 22 230 0.0 4.8 0.00 0.00 0.00 32 1004.6
20260503232746 22 230 0.0 4.8 0.00 0.00 0.00 32 1004.6
20260503232622 22 230 0.0 4.8 0.00 0.00 0.00 32 1004.7
20260503232615 22 230 0.0 4.8 0.00 0.00 0.00 32 1004.6
20260503232549 22 230 0.0 4.8 0.00 0.00 0.00 32 1004.7
20260503232145 22 63 0.0 3.2 0.00 0.00 0.00 33 1004.7
20260503231945 22 63 0.0 4.8 0.00 0.00 0.00 33 1004.7
20260503231832 22 63 0.0 4.8 0.00 0.00 0.00 33 1004.7
20260503231734 22 63 0.0 4.8 0.00 0.00 0.00 33 1004.8
20260503231633 22 61 0.0 4.8 0.00 0.00 0.00 30 1004.8
20260503231610 22 61 0.0 4.8 0.00 0.00 0.00 30 1004.8
20260503231547 22 61 0.0 4.8 0.00 0.00 0.00 30 1004.8
20260503231133 22 42 0.0 4.8 0.00 0.00 0.00 32 1004.9
20260503231041 22 210 0.0 0.0 0.00 0.00 0.00 29 1004.8
20260503230802 22 206 0.0 0.0 0.00 0.00 0.00 29 1004.8
20260503230734 22 206 0.0 0.0 0.00 0.00 0.00 29 1004.9
20260503230554 22 206 0.0 6.4 0.00 0.00 0.00 29 1005.0
20260503230542 22 206 0.0 4.8 0.00 0.00 0.00 29 1004.9
20260503230519 22 206 0.0 6.4 0.00 0.00 0.00 29 1005.0
20260503230107 22 206 0.0 6.4 0.00 0.00 0.00 29 1004.9
20260503225907 22 245 0.0 6.4 0.00 0.00 0.00 29 1004.9
20260503225802 22 245 0.0 6.4 0.00 0.00 0.00 29 1004.8
20260503225634 22 245 0.0 6.4 0.00 0.00 0.00 29 1004.9
20260503225604 22 192 0.0 0.0 0.00 0.00 0.00 34 1005.0
20260503225559 22 192 0.0 0.0 0.00 0.00 0.00 34 1005.0
20260503225531 22 244 0.0 4.8 0.00 0.00 0.00 30 1004.8
20260503225017 22 192 0.0 0.0 0.00 0.00 0.00 34 1004.9
20260503224812 22 192 0.0 0.0 0.00 0.00 0.00 34 1004.9
20260503224731 22 192 0.0 0.0 0.00 0.00 0.00 34 1004.9
20260503224612 22 192 0.0 0.0 0.00 0.00 0.00 34 1004.9
20260503224410 22 93 0.0 4.8 0.00 0.00 0.00 32 1005.0
20260503224204 22 157 0.0 11.3 0.00 0.00 0.00 29 1005.1
20260503224008 21 224 0.0 11.3 0.00 0.00 0.00 32 1004.9
20260503224001 21 197 0.0 11.3 0.00 0.00 0.00 29 1005.0
20260503223934 21 224 0.0 11.3 0.00 0.00 0.00 28 1005.0
20260503223602 21 251 0.0 11.3 0.00 0.00 0.00 29 1005.0
20260503223403 21 240 0.0 11.3 0.00 0.00 0.00 29 1005.1
20260503223212 21 213 0.0 9.7 0.00 0.00 0.00 29 1005.0
20260503223204 21 175 0.0 9.7 0.00 0.00 0.00 29 1005.1
20260503223007 21 175 0.0 16.1 0.00 0.00 0.00 29 1005.1
20260503222928 21 290 0.0 16.1 0.00 0.00 0.00 28 1005.1
20260503222609 21 290 0.0 16.1 0.00 0.00 0.00 28 1005.1
20260503222313 21 210 0.0 16.1 0.00 0.00 0.00 31 1005.1
20260503222211 21 209 0.0 16.1 0.00 0.00 0.00 31 1005.1
20260503222111 21 278 0.0 14.5 0.00 0.00 0.00 31 1005.2
20260503221953 22 278 0.0 17.7 0.00 0.00 0.00 31 1005.0
20260503221940 22 278 0.0 17.7 0.00 0.00 0.00 31 1005.1
20260503221922 22 278 0.0 17.7 0.00 0.00 0.00 31 1005.0
20260503221511 22 206 0.0 17.7 0.00 0.00 0.00 32 1005.0
20260503221312 22 216 0.0 17.7 0.00 0.00 0.00 30 1005.1
20260503221209 22 224 0.0 17.7 0.00 0.00 0.00 29 1005.1
20260503221111 22 278 0.0 17.7 0.00 0.00 0.00 29 1005.1
20260503221013 22 250 0.0 11.3 0.00 0.00 0.00 32 1005.1
20260503220704 22 240 0.0 11.3 0.00 0.00 0.00 32 1005.0
20260503220511 21 251 0.0 11.3 0.00 0.00 0.00 32 1005.0
20260503220311 21 144 0.0 11.3 0.00 0.00 0.00 32 1005.0
20260503220206 21 59 0.0 16.1 0.00 0.00 0.00 31 1005.0
20260503220111 21 214 0.0 16.1 0.00 0.00 0.00 31 1005.0
20260503220005 21 228 0.0 20.9 0.00 0.00 0.00 29 1005.2
20260503215941 21 235 0.0 20.9 0.00 0.00 0.00 31 1005.2
20260503215918 21 228 0.0 20.9 0.00 0.00 0.00 29 1005.2
20260503215507 21 251 0.0 20.9 0.00 0.00 0.00 29 1005.1
20260503215305 21 247 0.0 20.9 0.00 0.00 0.00 29 1005.2
20260503215210 22 252 0.0 20.9 0.00 0.00 0.00 31 1005.1
20260503215205 21 245 0.0 20.9 0.00 0.00 0.00 30 1005.2
20260503215008 21 248 0.0 9.7 0.00 0.00 0.00 36 1005.1
20260503214945 22 257 0.0 14.5 0.00 0.00 0.00 32 1005.0
20260503214918 21 248 0.0 9.7 0.00 0.00 0.00 36 1005.1
20260503214508 21 259 0.0 14.5 0.00 0.00 0.00 32 1005.1
20260503214307 22 272 0.0 14.5 0.00 0.00 0.00 33 1005.2
20260503214207 22 272 0.0 14.5 0.00 0.00 0.00 33 1005.1
20260503214059 22 272 0.0 14.5 0.00 0.00 0.00 33 1005.1
20260503213921 22 272 0.0 14.5 0.00 0.00 0.00 33 1005.1
20260503213909 22 272 0.0 14.5 0.00 0.00 0.00 33 1005.2
20260503213846 22 272 0.0 14.5 0.00 0.00 0.00 33 1005.2
20260503213557 22 165 0.0 14.5 0.00 0.00 0.00 31 1005.2
20260503213258 22 238 0.0 8.0 0.00 0.00 0.00 33 1005.3
20260503213131 22 202 0.0 9.7 0.00 0.00 0.00 34 1005.2
20260503213059 21 233 0.0 14.5 0.00 0.00 0.00 36 1005.2
20260503212900 21 233 0.0 14.5 0.00 0.00 0.00 36 1005.3
20260503212632 21 233 0.0 16.1 0.00 0.00 0.00 36 1005.2
20260503212441 21 209 0.0 17.7 0.00 0.00 0.00 36 1005.3
20260503212240 21 240 0.0 17.7 0.00 0.00 0.00 35 1005.3
20260503212128 21 274 0.0 17.7 0.00 0.00 0.00 35 1005.2
20260503212033 21 188 0.0 17.7 0.00 0.00 0.00 32 1005.4
20260503212016 21 252 0.0 17.7 0.00 0.00 0.00 33 1005.3
20260503211931 21 251 0.0 17.7 0.00 0.00 0.00 32 1005.2
20260503211842 21 261 0.0 17.7 0.00 0.00 0.00 32 1005.2
20260503211434 22 254 0.0 14.5 0.00 0.00 0.00 32 1005.3
20260503211230 22 250 0.0 14.5 0.00 0.00 0.00 34 1005.2
20260503211129 22 255 0.0 14.5 0.00 0.00 0.00 32 1005.2
20260503211032 22 209 0.0 14.5 0.00 0.00 0.00 32 1005.2
20260503210909 22 76 0.0 6.4 0.00 0.00 0.00 34 1005.3
20260503210858 22 76 0.0 6.4 0.00 0.00 0.00 34 1005.3
20260503210608 22 6 0.0 8.0 0.00 0.00 0.00 34 1005.3
20260503210402 21 114 0.0 8.0 0.00 0.00 0.00 32 1005.4
20260503210205 21 114 0.0 11.3 0.00 0.00 0.00 32 1005.4
20260503210130 21 114 0.0 11.3 0.00 0.00 0.00 32 1005.4
20260503210108 21 114 0.0 11.3 0.00 0.00 0.00 32 1005.4
20260503205858 21 234 0.0 11.3 0.00 0.00 0.00 32 1005.5
20260503205842 21 114 0.0 11.3 0.00 0.00 0.00 32 1005.4
20260503205548 21 231 0.0 11.3 0.00 0.00 0.00 34 1005.5
20260503205335 21 238 0.0 11.3 0.00 0.00 0.00 34 1005.5
20260503205135 -17 0.0 0.0 0.00 0.00 0.00 1005.5
20260503205103 22 266 0.0 16.1 0.00 0.00 0.00 33 1005.5
20260503204937 22 266 0.0 16.1 0.00 0.00 0.00 33 1005.5
20260503204737 22 266 0.0 16.1 0.00 0.00 0.00 33 1005.6
20260503204602 22 266 0.0 16.1 0.00 0.00 0.00 33 1005.5
20260503204507 22 266 0.0 16.1 0.00 0.00 0.00 33 1005.5
20260503204410 22 266 0.0 16.1 0.00 0.00 0.00 33 1005.6
20260503204059 22 274 0.0 11.3 0.00 0.00 0.00 38 1005.6
20260503204036 22 180 0.0 11.3 0.00 0.00 0.00 38 1005.6
20260503203857 21 8 0.0 11.3 0.00 0.00 0.00 35 1005.6
20260503203648 21 254 0.0 11.3 0.00 0.00 0.00 35 1005.6
20260503203530 21 248 0.0 11.3 0.00 0.00 0.00 33 1005.6
20260503203446 21 245 0.0 11.3 0.00 0.00 0.00 33 1005.6
20260503203238 21 248 0.0 11.3 0.00 0.00 0.00 32 1005.7
20260503203034 21 6 0.0 8.0 0.00 0.00 0.00 35 1005.7
20260503202833 21 244 0.0 8.0 0.00 0.00 0.00 32 1005.7
20260503202736 22 266 0.0 8.0 0.00 0.00 0.00 32 1005.8
20260503202531 22 266 0.0 8.0 0.00 0.00 0.00 32 1005.9
20260503202432 22 266 0.0 8.0 0.00 0.00 0.00 32 1005.8
20260503202215 22 255 0.0 8.0 0.00 0.00 0.00 34 1005.8
20260503202022 21 221 0.0 8.0 0.00 0.00 0.00 34 1005.7
20260503202014 21 221 0.0 8.0 0.00 0.00 0.00 34 1005.8
20260503201816 21 221 0.0 8.0 0.00 0.00 0.00 34 1005.8
20260503201616 21 221 0.0 17.7 0.00 0.00 0.00 34 1005.8
20260503201518 21 221 0.0 17.7 0.00 0.00 0.00 34 1005.9
20260503201407 21 223 0.0 17.7 0.00 0.00 0.00 34 1005.9
20260503201210 21 264 0.0 17.7 0.00 0.00 0.00 35 1005.9
20260503201110 21 254 0.0 17.7 0.00 0.00 0.00 34 1006.0
20260503201014 21 254 0.0 17.7 0.00 0.00 0.00 34 1006.0
20260503200739 21 223 0.0 17.7 0.00 0.00 0.00 34 1006.1
20260503200543 21 233 0.0 8.0 0.00 0.00 0.00 32 1006.0
20260503200509 21 247 0.0 8.0 0.00 0.00 0.00 33 1006.0
20260503200333 22 45 0.0 8.0 0.00 0.00 0.00 35 1006.2
20260503200133 21 241 0.0 6.4 0.00 0.00 0.00 36 1006.1
20260503200008 21 326 0.0 6.4 0.00 0.00 0.00 32 1006.1
20260503195935 21 257 0.0 0.0 0.00 0.00 0.00 32 1006.1
20260503195719 21 7 0.0 4.8 0.00 0.00 0.00 34 1006.2
20260503195507 21 7 0.0 14.5 0.00 0.00 0.00 34 1006.2
20260503195306 21 7 0.0 14.5 0.00 0.00 0.00 34 1006.3
20260503195203 21 7 0.0 14.5 0.00 0.00 0.00 34 1006.2
20260503195002 21 7 0.0 14.5 0.00 0.00 0.00 34 1006.2
20260503194904 21 7 0.0 14.5 0.00 0.00 0.00 34 1006.2
20260503194702 21 227 0.0 16.1 0.00 0.00 0.00 36 1006.3
20260503194504 21 130 0.0 16.1 0.00 0.00 0.00 34 1006.3
20260503194447 21 10 0.0 16.1 0.00 0.00 0.00 34 1006.3
20260503194305 21 8 0.0 16.1 0.00 0.00 0.00 34 1006.3
20260503194101 21 252 0.0 16.1 0.00 0.00 0.00 36 1006.3
20260503193943 21 241 0.0 16.1 0.00 0.00 0.00 36 1006.3
20260503193902 21 233 0.0 16.1 0.00 0.00 0.00 36 1006.3
20260503193701 21 240 0.0 9.7 0.00 0.00 0.00 34 1006.2
20260503193603 21 275 0.0 9.7 0.00 0.00 0.00 34 1006.3
20260503193437 21 276 0.0 9.7 0.00 0.00 0.00 34 1006.3
20260503193302 21 274 0.0 11.3 0.00 0.00 0.00 37 1006.3
20260503193103 21 179 0.0 24.1 0.00 0.00 0.00 38 1006.3
20260503192930 21 179 0.0 24.1 0.00 0.00 0.00 38 1006.3
20260503192902 21 179 0.0 24.1 0.00 0.00 0.00 38 1006.3
20260503192725 21 292 0.0 24.1 0.00 0.00 0.00 36 1006.2
20260503192719 21 171 0.0 24.1 0.00 0.00 0.00 38 1006.2
20260503192652 21 241 0.0 24.1 0.00 0.00 0.00 36 1006.3
20260503192305 21 247 0.0 24.1 0.00 0.00 0.00 33 1006.2
20260503192226 21 247 0.0 11.3 0.00 0.00 0.00 46 1006.2
20260503192221 21 243 0.0 11.3 0.00 0.00 0.00 34 1006.2
20260503192203 21 251 0.0 14.5 0.00 0.00 0.00 34 1006.1
20260503191703 21 240 0.0 9.7 0.00 0.00 0.00 39 1006.2
20260503191502 21 102 0.0 9.7 0.00 0.00 0.00 39 1006.3
20260503191431 21 102 0.0 9.7 0.00 0.00 0.00 39 1006.3
20260503191303 21 16 0.0 9.7 0.00 0.00 0.00 39 1006.2
20260503191216 21 244 0.0 8.0 0.00 0.00 0.00 37 1006.3
20260503191200 21 285 0.0 8.0 0.00 0.00 0.00 35 1006.1
20260503190900 21 230 0.0 8.0 0.00 0.00 0.00 37 1006.3
20260503190657 21 255 0.0 8.0 0.00 0.00 0.00 40 1006.3
20260503190605 21 63 0.0 8.0 0.00 0.00 0.00 37 1006.2
20260503190434 21 63 0.0 9.7 0.00 0.00 0.00 37 1006.2
20260503190302 21 63 0.0 9.7 0.00 0.00 0.00 37 1006.3
20260503190210 21 142 0.0 9.7 0.00 0.00 0.00 42 1006.4
20260503190148 21 116 0.0 9.7 0.00 0.00 0.00 38 1006.3
20260503185836 21 34 0.0 9.7 0.00 0.00 0.00 42 1006.3
20260503185635 21 128 0.0 9.7 0.00 0.00 0.00 40 1006.4
20260503185431 21 231 0.0 8.0 0.00 0.00 0.00 38 1006.4
20260503185416 21 258 0.0 8.0 0.00 0.00 0.00 37 1006.4
20260503185232 21 92 0.0 8.0 0.00 0.00 0.00 37 1006.5
20260503185031 21 92 0.0 8.0 0.00 0.00 0.00 37 1006.4
20260503184933 21 92 0.0 8.0 0.00 0.00 0.00 37 1006.4
20260503184903 21 92 0.0 8.0 0.00 0.00 0.00 37 1006.3
20260503184630 21 92 0.0 8.0 0.00 0.00 0.00 37 1006.3
20260503184423 21 202 0.0 8.0 0.00 0.00 0.00 37 1006.5
20260503184402 21 340 0.0 9.7 0.00 0.00 0.00 37 1006.5
20260503184223 21 27 0.0 14.5 0.00 0.00 0.00 38 1006.3
20260503184017 21 244 0.0 14.5 0.00 0.00 0.00 38 1006.4
20260503183901 21 300 0.0 14.5 0.00 0.00 0.00 36 1006.4
20260503183816 21 338 0.0 14.5 0.00 0.00 0.00 40 1006.4
20260503183607 21 125 0.0 14.5 0.00 0.00 0.00 39 1006.5
20260503183403 21 265 0.0 14.5 0.00 0.00 0.00 36 1006.5
20260503183201 21 266 0.0 11.3 0.00 0.00 0.00 39 1006.5
20260503182959 21 340 0.0 11.3 0.00 0.00 0.00 39 1006.4
20260503182858 20 293 0.0 11.3 0.00 0.00 0.00 36 1006.5
20260503182758 20 159 0.0 11.3 0.00 0.00 0.00 38 1006.5
20260503182700 20 195 0.0 11.3 0.00 0.00 0.00 40 1006.6
20260503182358 20 196 0.0 11.3 0.00 0.00 0.00 40 1006.5
20260503182159 21 7 0.0 11.3 0.00 0.00 0.00 42 1006.5
20260503181958 21 250 0.0 11.3 0.00 0.00 0.00 38 1006.5
20260503181859 21 272 0.0 11.3 0.00 0.00 0.00 40 1006.6
20260503181800 21 276 0.0 11.3 0.00 0.00 0.00 39 1006.5
20260503181556 21 237 0.0 11.3 0.00 0.00 0.00 40 1006.5
20260503181355 21 237 0.0 11.3 0.00 0.00 0.00 41 1006.6
20260503181145 21 245 0.0 11.3 0.00 0.00 0.00 43 1006.6
20260503181031 21 245 0.0 11.3 0.00 0.00 0.00 40 1006.8
20260503180844 21 252 0.0 11.3 0.00 0.00 0.00 40 1006.8
20260503180731 21 286 0.0 8.0 0.00 0.00 0.00 42 1006.7
20260503180530 21 28 0.0 8.0 0.00 0.00 0.00 42 1006.6
20260503180348 21 28 0.0 8.0 0.00 0.00 0.00 42 1006.7
20260503180330 21 28 0.0 8.0 0.00 0.00 0.00 42 1006.6
20260503175904 21 25 0.0 14.5 0.00 0.00 0.00 41 1006.7
20260503175834 21 25 0.0 14.5 0.00 0.00 0.00 41 1006.8
20260503175707 21 0 0.0 14.5 0.00 0.00 0.00 40 1006.7
20260503175503 21 224 0.0 14.5 0.00 0.00 0.00 43 1006.8
20260503175355 21 357 0.0 14.5 0.00 0.00 0.00 43 1006.6
20260503175330 21 55 0.0 14.5 0.00 0.00 0.00 43 1006.6
20260503175100 21 45 0.0 14.5 0.00 0.00 0.00 41 1006.7
20260503174900 21 214 0.0 11.3 0.00 0.00 0.00 41 1006.7
20260503174829 21 190 0.0 11.3 0.00 0.00 0.00 42 1006.7
20260503174756 21 224 0.0 11.3 0.00 0.00 0.00 41 1006.8
20260503174501 21 272 0.0 11.3 0.00 0.00 0.00 45 1006.8
20260503174330 21 7 0.0 11.3 0.00 0.00 0.00 46 1006.8
20260503174300 20 7 0.0 11.3 0.00 0.00 0.00 42 1006.8
20260503174048 20 272 0.0 11.3 0.00 0.00 0.00 39 1006.8
20260503173835 20 272 0.0 11.3 0.00 0.00 0.00 39 1006.7
20260503173830 20 258 0.0 11.3 0.00 0.00 0.00 39 1006.7
20260503173635 20 343 0.0 11.3 0.00 0.00 0.00 41 1006.7
20260503173439 20 238 0.0 6.4 0.00 0.00 0.00 45 1006.8
20260503173434 20 87 0.0 8.0 0.00 0.00 0.00 45 1006.8
20260503173333 20 42 0.0 8.0 0.00 0.00 0.00 45 1006.7
20260503173034 20 268 0.0 16.1 0.00 0.00 0.00 47 1006.9
20260503172830 20 268 0.0 16.1 0.00 0.00 0.00 47 1006.8
20260503172630 20 268 0.0 17.7 0.00 0.00 0.00 47 1006.8
20260503172430 20 268 0.0 17.7 0.00 0.00 0.00 47 1006.7
20260503172332 20 268 0.0 17.7 0.00 0.00 0.00 47 1006.7
20260503172223 20 237 0.0 17.7 0.00 0.00 0.00 47 1006.8
20260503172127 20 257 0.0 17.7 0.00 0.00 0.00 45 1006.8
20260503172103 20 235 0.0 17.7 0.00 0.00 0.00 44 1007.0
20260503171806 20 254 0.0 9.7 0.00 0.00 0.00 45 1006.8
20260503171707 20 111 0.0 6.4 0.00 0.00 0.00 48 1006.8
20260503171406 20 266 0.0 11.3 0.00 0.00 0.00 47 1006.9
20260503171335 20 257 0.0 11.3 0.00 0.00 0.00 47 1006.9
20260503171207 20 233 0.0 11.3 0.00 0.00 0.00 43 1006.9
20260503171056 20 234 0.0 11.3 0.00 0.00 0.00 43 1007.0
20260503171040 20 234 0.0 11.3 0.00 0.00 0.00 43 1006.9
20260503171013 20 234 0.0 11.3 0.00 0.00 0.00 43 1007.0
20260503170604 20 234 0.0 11.3 0.00 0.00 0.00 43 1006.9
20260503170407 20 268 0.0 11.3 0.00 0.00 0.00 43 1006.9
20260503170307 20 234 0.0 9.7 0.00 0.00 0.00 45 1007.0
20260503170207 20 234 0.0 9.7 0.00 0.00 0.00 45 1006.9
20260503160136 19 188 0.0 8.0 0.00 0.00 0.00 45 1006.7
20260503160128 19 17 0.0 11.3 0.00 0.00 0.00 46 1006.7
20260503150849 18 16 0.0 8.0 0.00 0.00 0.00 49 1006.4
20260503150748 18 14 0.0 9.7 0.00 0.00 0.00 49 1006.4
20260503150650 18 13 0.0 9.7 0.00 0.00 0.00 48 1006.3
20260503150453 18 357 0.0 9.7 0.00 0.00 0.00 50 1006.4
20260503150251 18 52 0.0 9.7 0.00 0.00 0.00 48 1006.4
20260503150104 18 172 0.0 9.7 0.00 0.00 0.00 48 1006.4
20260503140149 16 31 0.0 4.8 0.00 0.00 0.00 56 1006.2
20260503131331 13 206 0.0 4.8 0.00 0.00 0.00 59 1005.6
20260503131132 13 228 0.0 8.0 0.00 0.00 0.00 58 1005.6
20260503130932 13 228 0.0 8.0 0.00 0.00 0.00 57 1005.5
20260503130730 13 224 0.0 8.0 0.00 0.00 0.00 59 1005.6
20260503130633 13 223 0.0 8.0 0.00 0.00 0.00 59 1005.6
20260503130533 12 223 0.0 8.0 0.00 0.00 0.00 59 1005.5
20260503130330 12 223 0.0 8.0 0.00 0.00 0.00 59 1005.5
20260503130138 12 233 0.0 4.8 0.00 0.00 0.00 59 1005.4
20260503130129 12 233 0.0 4.8 0.00 0.00 0.00 59 1005.5
20260503110706 11 189 0.0 8.0 0.00 0.00 0.00 55 1004.2
20260503110606 11 190 0.0 9.7 0.00 0.00 0.00 55 1004.2
20260503110508 11 199 0.0 9.7 0.00 0.00 0.00 55 1004.2
20260503110308 11 209 0.0 9.7 0.00 0.00 0.00 56 1004.2
20260503110212 12 182 0.0 9.7 0.00 0.00 0.00 55 1004.2
20260503110107 12 182 0.0 9.7 0.00 0.00 0.00 55 1004.2
20260503100234 13 217 0.0 14.5 0.00 0.00 0.00 51 1004.5
20260503090459 13 192 0.0 24.1 0.00 0.00 0.00 49 1005.0
20260503090344 13 189 0.0 24.1 0.00 0.00 0.00 49 1005.0
20260503090319 13 200 0.0 24.1 0.00 0.00 0.00 48 1005.1
20260503081551 14 216 0.0 20.9 0.00 0.00 0.00 48 1005.1
20260503081527 14 196 0.0 20.9 0.00 0.00 0.00 48 1005.2
20260503081304 14 214 0.0 20.9 0.00 0.00 0.00 48 1005.2
20260503081103 14 195 0.0 20.9 0.00 0.00 0.00 48 1005.2
20260503081051 14 195 0.0 20.9 0.00 0.00 0.00 48 1005.2
20260503080957 14 190 0.0 20.9 0.00 0.00 0.00 48 1005.3
20260503080702 14 200 0.0 16.1 0.00 0.00 0.00 48 1005.3
20260503080555 14 200 0.0 16.1 0.00 0.00 0.00 48 1005.3
20260503080502 14 196 0.0 16.1 0.00 0.00 0.00 48 1005.2
20260503080250 14 192 0.0 16.1 0.00 0.00 0.00 48 1005.3
20260503072832 15 238 0.0 16.1 0.00 0.00 0.00 49 1005.8
20260503072729 15 145 0.0 16.1 0.00 0.00 0.00 49 1005.9
20260503072549 15 183 0.0 16.1 0.00 0.00 0.00 49 1005.9
20260503072429 15 173 0.0 16.1 0.00 0.00 0.00 50 1005.9
20260503072230 15 207 0.0 16.1 0.00 0.00 0.00 50 1006.0
20260503072050 15 189 0.0 16.1 0.00 0.00 0.00 50 1006.0
20260503072030 15 190 0.0 16.1 0.00 0.00 0.00 50 1006.1
20260503071830 15 203 0.0 17.7 0.00 0.00 0.00 50 1006.1
20260503071631 15 178 0.0 17.7 0.00 0.00 0.00 50 1006.2
20260503071551 15 180 0.0 17.7 0.00 0.00 0.00 50 1006.2
20260503071424 15 180 0.0 17.7 0.00 0.00 0.00 49 1006.3
20260503071343 15 204 0.0 19.3 0.00 0.00 0.00 49 1006.3
20260503071338 15 221 0.0 19.3 0.00 0.00 0.00 49 1006.3
20260503071322 15 169 0.0 17.7 0.00 0.00 0.00 49 1006.2
20260503070820 15 192 0.0 19.3 0.00 0.00 0.00 49 1006.3
20260503070619 15 200 0.0 19.3 0.00 0.00 0.00 50 1006.2
20260503070549 15 213 0.0 19.3 0.00 0.00 0.00 50 1006.2
20260503070419 15 189 0.0 19.3 0.00 0.00 0.00 50 1006.3
20260503070216 15 202 0.0 20.9 0.00 0.00 0.00 50 1006.4
20260503060152 15 283 0.0 22.5 0.00 0.00 0.00 55 1007.4
20260503054743 15 303 0.0 20.9 0.00 0.00 0.00 52 1008.0
20260503054543 15 216 0.0 16.1 0.00 0.00 0.00 51 1008.1
20260503054505 15 216 0.0 11.3 0.00 0.00 0.00 52 1008.1
20260503054344 14 234 0.0 8.0 0.00 0.00 0.00 51 1008.2
20260503054240 14 234 0.0 8.0 0.00 0.00 0.00 51 1008.3
20260503054228 14 234 0.0 8.0 0.00 0.00 0.00 51 1008.3
20260503053918 14 233 0.0 8.0 0.00 0.00 0.00 51 1008.2
20260503053710 14 240 0.0 6.4 0.00 0.00 0.00 51 1008.1
20260503053506 14 255 0.0 6.4 0.00 0.00 0.00 51 1007.9
20260503053408 14 217 0.0 6.4 0.00 0.00 0.00 51 1008.0
20260503053251 14 213 0.0 11.3 0.00 0.00 0.00 51 1008.0
20260503053230 14 217 0.0 11.3 0.00 0.00 0.00 51 1008.1
20260503052906 14 214 0.0 11.3 0.00 0.00 0.00 51 1008.1
20260503052708 14 219 0.0 11.3 0.00 0.00 0.00 50 1008.0
20260503052607 14 227 0.0 11.3 0.00 0.00 0.00 51 1008.0
20260503052503 14 227 0.0 11.3 0.00 0.00 0.00 51 1008.0
20260503052301 14 214 0.0 16.1 0.00 0.00 0.00 50 1008.1
20260503052240 14 212 0.0 16.1 0.00 0.00 0.00 50 1008.0
20260503052219 14 212 0.0 16.1 0.00 0.00 0.00 51 1008.1
20260503051905 14 210 0.0 16.1 0.00 0.00 0.00 51 1008.1
20260503051648 14 216 0.0 16.1 0.00 0.00 0.00 51 1008.1
20260503051449 14 214 0.0 16.1 0.00 0.00 0.00 51 1008.2
20260503051443 14 216 0.0 16.1 0.00 0.00 0.00 51 1008.1
20260503051242 14 214 0.0 16.1 0.00 0.00 0.00 52 1008.1
20260503051042 13 193 0.0 16.1 0.00 0.00 0.00 52 1008.1
20260503050948 13 189 0.0 16.1 0.00 0.00 0.00 52 1008.1
20260503050941 13 161 0.0 14.5 0.00 0.00 0.00 52 1008.1
20260503050643 13 190 0.0 4.8 0.00 0.00 0.00 52 1007.9
20260503050448 13 179 0.0 4.8 0.00 0.00 0.00 52 1008.0
20260503050435 13 179 0.0 4.8 0.00 0.00 0.00 52 1007.9
20260503050204 13 179 0.0 4.8 0.00 0.00 0.00 52 1007.9
20260503050010 14 182 0.0 4.8 0.00 0.00 0.00 52 1007.9
20260503045936 14 182 0.0 4.8 0.00 0.00 0.00 52 1007.9
20260503045804 14 182 0.0 4.8 0.00 0.00 0.00 51 1007.9
20260503045606 14 188 0.0 4.8 0.00 0.00 0.00 51 1007.9
20260503045432 14 188 0.0 4.8 0.00 0.00 0.00 51 1007.9
20260503045405 14 188 0.0 4.8 0.00 0.00 0.00 51 1008.0
20260503045305 14 188 0.0 6.4 0.00 0.00 0.00 51 1008.0
20260503044937 14 176 0.0 6.4 0.00 0.00 0.00 51 1008.0
20260503044736 14 175 0.0 6.4 0.00 0.00 0.00 51 1008.0
20260503044538 14 179 0.0 6.4 0.00 0.00 0.00 51 1008.0
20260503044436 14 180 0.0 6.4 0.00 0.00 0.00 51 1008.0
20260503044336 14 180 0.0 6.4 0.00 0.00 0.00 51 1008.1
20260503044139 14 204 0.0 9.7 0.00 0.00 0.00 51 1008.1
20260503043935 14 210 0.0 9.7 0.00 0.00 0.00 51 1008.2
20260503043734 14 210 0.0 9.7 0.00 0.00 0.00 51 1008.2
20260503043537 14 212 0.0 9.7 0.00 0.00 0.00 51 1008.2
20260503043438 14 212 0.0 9.7 0.00 0.00 0.00 51 1008.2
20260503043434 14 212 0.0 9.7 0.00 0.00 0.00 51 1008.2
20260503043231 14 189 0.0 9.7 0.00 0.00 0.00 51 1008.4
20260503043213 14 206 0.0 9.7 0.00 0.00 0.00 51 1008.3
20260503043145 14 189 0.0 9.7 0.00 0.00 0.00 51 1008.4
20260503042734 14 189 0.0 8.0 0.00 0.00 0.00 51 1008.4
20260503042534 14 185 0.0 8.0 0.00 0.00 0.00 51 1008.4
20260503042433 14 207 0.0 6.4 0.00 0.00 0.00 51 1008.4
20260503042333 14 207 0.0 6.4 0.00 0.00 0.00 51 1008.4
20260503042224 14 166 0.0 6.4 0.00 0.00 0.00 51 1008.4
20260503042207 14 169 0.0 6.4 0.00 0.00 0.00 51 1008.4
20260503041932 14 166 0.0 6.4 0.00 0.00 0.00 51 1008.4
20260503041827 14 172 0.0 6.4 0.00 0.00 0.00 50 1008.4
20260503041530 14 172 0.0 6.4 0.00 0.00 0.00 50 1008.4
20260503041435 14 178 0.0 6.4 0.00 0.00 0.00 50 1008.4
20260503041330 14 178 0.0 6.4 0.00 0.00 0.00 50 1008.5
20260503041215 14 168 0.0 4.8 0.00 0.00 0.00 50 1008.5
20260503041206 14 168 0.0 4.8 0.00 0.00 0.00 50 1008.5
20260503040904 14 168 0.0 4.8 0.00 0.00 0.00 50 1008.5
20260503040657 14 164 0.0 4.8 0.00 0.00 0.00 50 1008.5
20260503040558 14 159 0.0 4.8 0.00 0.00 0.00 49 1008.6
20260503040433 14 159 0.0 4.8 0.00 0.00 0.00 49 1008.6
20260503040259 14 159 0.0 4.8 0.00 0.00 0.00 49 1008.6
20260503040228 15 148 0.0 4.8 0.00 0.00 0.00 49 1008.7
20260503040204 15 148 0.0 4.8 0.00 0.00 0.00 49 1008.7
20260503035855 15 148 0.0 4.8 0.00 0.00 0.00 49 1008.7
20260503035652 15 183 0.0 3.2 0.00 0.00 0.00 49 1008.7
20260503035433 15 183 0.0 3.2 0.00 0.00 0.00 49 1008.8
20260503035252 15 183 0.0 3.2 0.00 0.00 0.00 48 1008.8
20260503035052 15 183 0.0 3.2 0.00 0.00 0.00 48 1008.9
20260503034943 15 183 0.0 3.2 0.00 0.00 0.00 48 1008.9
20260503034932 15 183 0.0 3.2 0.00 0.00 0.00 48 1008.9
20260503034636 15 183 0.0 3.2 0.00 0.00 0.00 47 1008.9
20260503034436 15 183 0.0 3.2 0.00 0.00 0.00 47 1008.9
20260503034233 15 183 0.0 4.8 0.00 0.00 0.00 47 1009.0
20260503034224 15 183 0.0 6.4 0.00 0.00 0.00 47 1009.0
20260503034157 15 183 0.0 4.8 0.00 0.00 0.00 47 1009.0
20260503033830 15 183 0.0 6.4 0.00 0.00 0.00 46 1009.1
20260503033629 15 188 0.0 6.4 0.00 0.00 0.00 46 1009.1
20260503033432 15 188 0.0 6.4 0.00 0.00 0.00 46 1009.1
20260503033426 15 188 0.0 6.4 0.00 0.00 0.00 46 1009.2
20260503033323 15 189 0.0 6.4 0.00 0.00 0.00 46 1009.2
20260503033227 15 192 0.0 6.4 0.00 0.00 0.00 46 1009.3
20260503033153 15 192 0.0 6.4 0.00 0.00 0.00 46 1009.3
20260503032821 15 192 0.0 4.8 0.00 0.00 0.00 46 1009.2
20260503032620 15 217 0.0 3.2 0.00 0.00 0.00 45 1009.2
20260503032422 16 217 0.0 3.2 0.00 0.00 0.00 46 1009.3
20260503032239 16 217 0.0 6.4 0.00 0.00 0.00 45 1009.4
20260503032227 16 217 0.0 3.2 0.00 0.00 0.00 45 1009.4
20260503032153 16 217 0.0 3.2 0.00 0.00 0.00 45 1009.4
20260503031813 16 217 0.0 6.4 0.00 0.00 0.00 46 1009.5
20260503031705 16 217 0.0 6.4 0.00 0.00 0.00 45 1009.5
20260503031405 16 217 0.0 9.7 0.00 0.00 0.00 45 1009.4
20260503031225 16 219 0.0 9.7 0.00 0.00 0.00 46 1009.6
20260503031220 16 217 0.0 9.7 0.00 0.00 0.00 45 1009.5
20260503031151 16 219 0.0 9.7 0.00 0.00 0.00 45 1009.6
20260503030800 16 219 0.0 9.7 0.00 0.00 0.00 46 1009.6
20260503030537 16 219 0.0 9.7 0.00 0.00 0.00 45 1009.6
20260503030435 16 207 0.0 6.4 0.00 0.00 0.00 45 1009.6
20260503030337 16 207 0.0 6.4 0.00 0.00 0.00 45 1009.7
20260503030136 16 207 0.0 4.8 0.00 0.00 0.00 46 1009.7
20260503030037 16 207 0.0 4.8 0.00 0.00 0.00 45 1009.7
20260503025934 16 207 0.0 4.8 0.00 0.00 0.00 45 1009.7
20260503025735 16 207 0.0 4.8 0.00 0.00 0.00 45 1009.8
20260503025535 16 207 0.0 6.4 0.00 0.00 0.00 46 1009.8
20260503025431 16 207 0.0 6.4 0.00 0.00 0.00 44 1009.8
20260503025334 16 207 0.0 6.4 0.00 0.00 0.00 44 1009.7
20260503025138 16 207 0.0 6.4 0.00 0.00 0.00 45 1009.7
20260503024932 16 207 0.0 6.4 0.00 0.00 0.00 46 1009.9
20260503024734 16 65 0.0 6.4 0.00 0.00 0.00 45 1009.9
20260503024535 16 219 0.0 4.8 0.00 0.00 0.00 45 1010.0
20260503024432 16 219 0.0 4.8 0.00 0.00 0.00 44 1010.1
20260503024333 16 219 0.0 4.8 0.00 0.00 0.00 44 1010.1
20260503024134 16 219 0.0 6.4 0.00 0.00 0.00 44 1010.2
20260503023936 16 220 0.0 6.4 0.00 0.00 0.00 44 1010.2
20260503023836 16 219 0.0 8.0 0.00 0.00 0.00 44 1010.3
20260503023536 16 219 0.0 8.0 0.00 0.00 0.00 44 1010.3
20260503023436 16 219 0.0 8.0 0.00 0.00 0.00 45 1010.2
20260503023336 16 219 0.0 8.0 0.00 0.00 0.00 44 1010.3
20260503023137 16 257 0.0 8.0 0.00 0.00 0.00 44 1010.3
20260503022936 16 258 0.0 8.0 0.00 0.00 0.00 44 1010.3
20260503022738 16 228 0.0 16.1 0.00 0.00 0.00 44 1010.3
20260503022537 16 227 0.0 16.1 0.00 0.00 0.00 44 1010.4
20260503022435 16 228 0.0 16.1 0.00 0.00 0.00 44 1010.4
20260503022337 16 228 0.0 16.1 0.00 0.00 0.00 44 1010.3
20260503022239 16 223 0.0 16.1 0.00 0.00 0.00 44 1010.4
20260503021940 16 223 0.0 16.1 0.00 0.00 0.00 44 1010.4
20260503021737 16 234 0.0 8.0 0.00 0.00 0.00 44 1010.3
20260503021720 16 240 0.0 16.1 0.00 0.00 0.00 45 1010.4
20260503021704 16 240 0.0 8.0 0.00 0.00 0.00 45 1010.5
20260503021341 16 240 0.0 16.1 0.00 0.00 0.00 45 1010.4
20260503021140 16 238 0.0 16.1 0.00 0.00 0.00 44 1010.5
20260503020936 16 257 0.0 16.1 0.00 0.00 0.00 45 1010.4
20260503020731 16 245 0.0 16.1 0.00 0.00 0.00 44 1010.4
20260503020724 16 202 0.0 9.7 0.00 0.00 0.00 45 1010.5
20260503020700 16 217 0.0 16.1 0.00 0.00 0.00 44 1010.5
20260503020332 16 202 0.0 9.7 0.00 0.00 0.00 44 1010.4
20260503020131 16 202 0.0 9.7 0.00 0.00 0.00 44 1010.4
20260503015939 16 202 0.0 9.7 0.00 0.00 0.00 44 1010.4
20260503015932 16 202 0.0 9.7 0.00 0.00 0.00 44 1010.5
20260503015753 17 203 0.0 9.7 0.00 0.00 0.00 45 1010.5
20260503015732 16 202 0.0 9.7 0.00 0.00 0.00 44 1010.3
20260503015714 17 207 0.0 9.7 0.00 0.00 0.00 44 1010.5
20260503015305 17 209 0.0 9.7 0.00 0.00 0.00 44 1010.4
20260503015104 17 207 0.0 9.7 0.00 0.00 0.00 44 1010.4
20260503014936 17 207 0.0 9.7 0.00 0.00 0.00 44 1010.4
20260503014846 17 207 0.0 9.7 0.00 0.00 0.00 43 1010.4
20260503014649 17 196 0.0 8.0 0.00 0.00 0.00 43 1010.4
20260503014434 17 221 0.0 8.0 0.00 0.00 0.00 43 1010.5
20260503014239 17 259 0.0 9.7 0.00 0.00 0.00 43 1010.6
20260503014033 17 259 0.0 14.5 0.00 0.00 0.00 44 1010.7
20260503013944 17 259 0.0 14.5 0.00 0.00 0.00 43 1010.6
20260503013935 17 259 0.0 14.5 0.00 0.00 0.00 43 1010.7
20260503013618 17 259 0.0 14.5 0.00 0.00 0.00 43 1010.7
20260503013432 17 259 0.0 27.4 0.00 0.00 0.00 42 1010.7
20260503013423 17 252 0.0 27.4 0.00 0.00 0.00 42 1010.7
20260503013207 17 259 0.0 27.4 0.00 0.00 0.00 42 1010.7
20260503013007 17 261 0.0 27.4 0.00 0.00 0.00 43 1010.6
20260503012931 17 279 0.0 27.4 0.00 0.00 0.00 43 1010.6
20260503012806 17 228 0.0 27.4 0.00 0.00 0.00 42 1010.6
20260503012606 17 220 0.0 27.4 0.00 0.00 0.00 43 1010.6
20260503012432 17 213 0.0 16.1 0.00 0.00 0.00 42 1010.7
20260503012401 17 235 0.0 16.1 0.00 0.00 0.00 42 1010.7
20260503012200 17 264 0.0 16.1 0.00 0.00 0.00 43 1010.7
20260503012002 17 254 0.0 16.1 0.00 0.00 0.00 42 1010.6
20260503011935 17 240 0.0 16.1 0.00 0.00 0.00 42 1010.6
20260503011750 17 219 0.0 4.8 0.00 0.00 0.00 42 1010.7
20260503011540 17 220 0.0 4.8 0.00 0.00 0.00 44 1010.6
20260503011434 17 220 0.0 4.8 0.00 0.00 0.00 43 1010.6
20260503011340 17 220 0.0 4.8 0.00 0.00 0.00 44 1010.6
20260503011239 17 220 0.0 4.8 0.00 0.00 0.00 43 1010.6
20260503010944 17 220 0.0 4.8 0.00 0.00 0.00 40 1010.6
20260503010934 17 220 0.0 4.8 0.00 0.00 0.00 40 1010.5
20260503010737 17 220 0.0 4.8 0.00 0.00 0.00 41 1010.5
20260503010722 17 220 0.0 4.8 0.00 0.00 0.00 41 1010.5
20260503010701 17 220 0.0 4.8 0.00 0.00 0.00 41 1010.5
20260503010335 17 220 0.0 9.7 0.00 0.00 0.00 41 1010.5
20260503010136 17 220 0.0 14.5 0.00 0.00 0.00 41 1010.4
20260503005934 17 220 0.0 14.5 0.00 0.00 0.00 41 1010.4
20260503005752 17 220 0.0 14.5 0.00 0.00 0.00 41 1010.5
20260503005735 17 220 0.0 14.5 0.00 0.00 0.00 41 1010.5
20260503005709 17 220 0.0 14.5 0.00 0.00 0.00 41 1010.5
20260503005333 17 219 0.0 14.5 0.00 0.00 0.00 41 1010.6
20260503005135 17 231 0.0 6.4 0.00 0.00 0.00 42 1010.6
20260503004934 17 231 0.0 6.4 0.00 0.00 0.00 41 1010.5
20260503004738 17 231 0.0 8.0 0.00 0.00 0.00 42 1010.6
20260503004727 17 231 0.0 8.0 0.00 0.00 0.00 41 1010.6
20260503004704 17 231 0.0 8.0 0.00 0.00 0.00 42 1010.6
20260503004337 17 231 0.0 8.0 0.00 0.00 0.00 40 1010.7
20260503004135 17 231 0.0 8.0 0.00 0.00 0.00 40 1010.7
20260503003935 17 226 0.0 8.0 0.00 0.00 0.00 40 1010.6
20260503003737 17 237 0.0 9.7 0.00 0.00 0.00 41 1010.8
20260503003727 17 220 0.0 9.7 0.00 0.00 0.00 41 1010.8
20260503003704 17 235 0.0 9.7 0.00 0.00 0.00 42 1010.8
20260503003336 17 220 0.0 9.7 0.00 0.00 0.00 41 1010.6
20260503003135 17 241 0.0 9.7 0.00 0.00 0.00 42 1010.7
20260503002935 17 241 0.0 9.7 0.00 0.00 0.00 41 1010.7
20260503002804 17 234 0.0 14.5 0.00 0.00 0.00 43 1010.7
20260503002735 17 241 0.0 9.7 0.00 0.00 0.00 42 1010.7
20260503002722 17 237 0.0 17.7 0.00 0.00 0.00 42 1010.8
20260503002335 17 237 0.0 20.9 0.00 0.00 0.00 42 1010.8
20260503002136 17 255 0.0 20.9 0.00 0.00 0.00 43 1010.8
20260503001936 17 255 0.0 20.9 0.00 0.00 0.00 42 1010.9
20260503001738 17 245 0.0 20.9 0.00 0.00 0.00 42 1011.1
20260503001725 17 224 0.0 20.9 0.00 0.00 0.00 39 1011.2
20260503001701 17 266 0.0 20.9 0.00 0.00 0.00 42 1011.1
20260503001335 17 244 0.0 19.3 0.00 0.00 0.00 40 1011.0
20260503001137 17 224 0.0 32.2 0.00 0.00 0.00 40 1010.8
20260503001041 17 274 0.0 32.2 0.00 0.00 0.00 41 1010.8
20260503000935 17 274 0.0 32.2 0.00 0.00 0.00 41 1010.8
20260503000738 17 292 0.0 32.2 0.00 0.00 0.00 42 1010.9
20260503000725 18 276 0.0 32.2 0.00 0.00 0.00 39 1011.4
20260503000702 18 0 0.0 32.2 0.00 0.00 0.00 40 1010.8